• In Hungary
  • List of Countries
  • For 7 days
  • Water Temperature
  • Satellite Maps
  • Weather Map
  • News
  • Weather Widgets
  • user-avatar
    Login

    Hourly Weather Biernatowo

    Today, 25 November, Saturday

    Time Temperature Precipitation Wind Pressure Humidity
    00:00 +6°C° 0 mm 2 mps 753 mmHg 90%
    01:00 +7°C° 0 mm 1 mps 754 mmHg 91%
    02:00 +7°C° 0.1 mm 1 mps 753 mmHg 91%
    03:00 +6°C° 0.1 mm 0 mps 753 mmHg 91%
    04:00 +5°C° 0.1 mm 0 mps 753 mmHg 92%
    05:00 +6°C° 0.5 mm 1 mps 753 mmHg 92%
    06:00 +6°C° 0.5 mm 1 mps 752 mmHg 93%
    07:00 +5°C° 0.5 mm 2 mps 751 mmHg 93%
    08:00 +5°C° 1.2 mm 2 mps 751 mmHg 93%
    09:00 +5°C° 1.2 mm 3 mps 750 mmHg 92%
    10:00 +5°C° 1.2 mm 3 mps 749 mmHg 92%
    11:00 +5°C° 1.5 mm 3 mps 748 mmHg 90%
    12:00 +5°C° 1.5 mm 3 mps 748 mmHg 89%
    13:00 +7°C° 1.5 mm 3 mps 747 mmHg 88%
    14:00 +7°C° 1.1 mm 3 mps 747 mmHg 89%
    15:00 +6°C° 1.1 mm 4 mps 747 mmHg 90%
    16:00 +6°C° 1.1 mm 4 mps 747 mmHg 91%
    17:00 +5°C° 0.1 mm 4 mps 747 mmHg 89%
    18:00 +5°C° 0.1 mm 5 mps 748 mmHg 87%
    19:00 +3°C° 0.1 mm 6 mps 748 mmHg 86%
    20:00 +3°C° 0 mm 5 mps 749 mmHg 83%
    21:00 +3°C° 0 mm 5 mps 750 mmHg 81%
    22:00 +3°C° 0 mm 5 mps 751 mmHg 79%
    23:00 +3°C° 0 mm 4 mps 752 mmHg 81%

    Tomorrow, 26 November, Sunday

    Time Temperature Precipitation Wind Pressure Humidity
    00:00 +3°C° 0 mm 4 mps 753 mmHg 83%
    01:00 +1°C° 0 mm 4 mps 753 mmHg 86%
    02:00 +2°C° 0 mm 3 mps 754 mmHg 88%
    03:00 +1°C° 0 mm 3 mps 754 mmHg 90%
    04:00 +1°C° 0 mm 3 mps 755 mmHg 92%
    05:00 +1°C° 0 mm 3 mps 755 mmHg 93%
    06:00 +1°C° 0 mm 3 mps 755 mmHg 93%
    07:00 0°C° 0 mm 4 mps 756 mmHg 93%
    08:00 0°C° 0 mm 4 mps 756 mmHg 89%
    09:00 +1°C° 0 mm 4 mps 757 mmHg 86%
    10:00 +1°C° 0 mm 5 mps 757 mmHg 82%
    11:00 +2°C° 0 mm 5 mps 757 mmHg 79%
    12:00 +2°C° 0 mm 5 mps 757 mmHg 75%
    13:00 +3°C° 0 mm 5 mps 757 mmHg 72%
    14:00 +3°C° 0 mm 4 mps 757 mmHg 75%
    15:00 +3°C° 0 mm 4 mps 757 mmHg 77%
    16:00 +1°C° 0 mm 4 mps 758 mmHg 80%
    17:00 +1°C° 0 mm 4 mps 758 mmHg 81%
    18:00 +1°C° 0 mm 4 mps 758 mmHg 83%
    19:00 0°C° 0 mm 4 mps 758 mmHg 84%
    20:00 0°C° 0 mm 4 mps 758 mmHg 84%
    21:00 0°C° 0 mm 4 mps 758 mmHg 84%
    22:00 0°C° 0 mm 5 mps 759 mmHg 85%
    23:00 0°C° 0 mm 5 mps 759 mmHg 85%

    Day after tomorrow, 27 November, Monday

    Time Temperature Precipitation Wind Pressure Humidity
    00:00 0°C° 0 mm 5 mps 758 mmHg 85%
    01:00 0°C° 0 mm 5 mps 758 mmHg 85%
    02:00 0°C° 0 mm 5 mps 758 mmHg 86%
    03:00 0°C° 0 mm 5 mps 758 mmHg 86%
    04:00 +1°C° 0 mm 5 mps 758 mmHg 86%
    05:00 0°C° 0 mm 5 mps 758 mmHg 87%
    06:00 0°C° 0 mm 5 mps 759 mmHg 88%
    07:00 0°C° 0 mm 5 mps 759 mmHg 88%
    08:00 +1°C° 0.2 mm 5 mps 759 mmHg 87%
    09:00 +1°C° 0.2 mm 5 mps 759 mmHg 86%
    10:00 +1°C° 0.2 mm 5 mps 760 mmHg 84%
    11:00 +1°C° 0 mm 5 mps 759 mmHg 83%
    12:00 +2°C° 0 mm 5 mps 759 mmHg 82%
    13:00 +2°C° 0 mm 5 mps 759 mmHg 81%
    14:00 +2°C° 0 mm 5 mps 759 mmHg 81%
    15:00 +3°C° 0 mm 4 mps 759 mmHg 81%
    16:00 +3°C° 0 mm 4 mps 759 mmHg 82%
    17:00 +1°C° 0 mm 4 mps 759 mmHg 83%
    18:00 +1°C° 0 mm 4 mps 759 mmHg 84%
    19:00 0°C° 0 mm 4 mps 759 mmHg 85%
    20:00 0°C° 0 mm 4 mps 758 mmHg 86%
    21:00 0°C° 0 mm 5 mps 758 mmHg 86%
    22:00 0°C° 0 mm 5 mps 757 mmHg 87%
    23:00 0°C° 0.1 mm 5 mps 757 mmHg 86%

    28 November, Tuesday

    Time Temperature Precipitation Wind Pressure Humidity
    00:00 0°C° 0.1 mm 5 mps 756 mmHg 84%
    01:00 0°C° 0.1 mm 5 mps 756 mmHg 83%
    02:00 0°C° 0.1 mm 5 mps 755 mmHg 83%
    03:00 0°C° 0.1 mm 5 mps 755 mmHg 83%
    04:00 0°C° 0.1 mm 5 mps 754 mmHg 82%
    05:00 0°C° 0.2 mm 5 mps 754 mmHg 82%
    06:00 +1°C° 0.2 mm 5 mps 754 mmHg 82%
    07:00 +1°C° 0.2 mm 5 mps 753 mmHg 82%
    08:00 +1°C° 0.2 mm 5 mps 753 mmHg 81%
    09:00 +1°C° 0.2 mm 5 mps 753 mmHg 80%
    10:00 +1°C° 0.2 mm 5 mps 753 mmHg 80%
    11:00 +1°C° 0.2 mm 5 mps 752 mmHg 80%
    12:00 +2°C° 0.2 mm 5 mps 752 mmHg 80%
    13:00 +2°C° 0.2 mm 5 mps 752 mmHg 79%
    14:00 +3°C° 0.2 mm 4 mps 751 mmHg 79%
    15:00 +1°C° 0.2 mm 4 mps 751 mmHg 78%
    16:00 +1°C° 0.2 mm 4 mps 751 mmHg 77%
    17:00 +1°C° 0.1 mm 4 mps 750 mmHg 76%
    18:00 +1°C° 0.1 mm 4 mps 750 mmHg 74%
    19:00 +1°C° 0.1 mm 4 mps 750 mmHg 73%
    20:00 +1°C° 0.1 mm 4 mps 750 mmHg 73%
    21:00 +1°C° 0.1 mm 4 mps 749 mmHg 72%
    22:00 +1°C° 0.1 mm 4 mps 749 mmHg 72%
    23:00 0°C° 0 mm 4 mps 749 mmHg 72%

    29 November, Wednesday

    Time Temperature Precipitation Wind Pressure Humidity
    00:00 +1°C° 0 mm 3 mps 748 mmHg 73%
    01:00 +1°C° 0 mm 3 mps 748 mmHg 74%
    02:00 +1°C° 0.1 mm 3 mps 748 mmHg 74%
    03:00 0°C° 0.1 mm 4 mps 747 mmHg 74%
    04:00 0°C° 0.1 mm 4 mps 747 mmHg 74%
    05:00 0°C° 0.1 mm 4 mps 747 mmHg 74%
    06:00 0°C° 0.1 mm 4 mps 746 mmHg 74%
    07:00 0°C° 0.1 mm 4 mps 746 mmHg 75%
    08:00 0°C° 0.1 mm 4 mps 746 mmHg 74%
    09:00 +1°C° 0.1 mm 4 mps 746 mmHg 73%
    10:00 +1°C° 0.1 mm 4 mps 746 mmHg 71%
    11:00 +3°C° 0 mm 4 mps 746 mmHg 71%
    12:00 +3°C° 0 mm 4 mps 745 mmHg 70%
    13:00 +3°C° 0 mm 4 mps 745 mmHg 69%
    14:00 +3°C° 0 mm 4 mps 745 mmHg 73%
    15:00 +3°C° 0 mm 4 mps 745 mmHg 77%
    16:00 +3°C° 0 mm 4 mps 745 mmHg 80%
    17:00 +3°C° 0.2 mm 4 mps 745 mmHg 82%
    18:00 +2°C° 0.2 mm 5 mps 745 mmHg 83%
    19:00 +2°C° 0.2 mm 5 mps 746 mmHg 85%
    20:00 +2°C° 0.1 mm 5 mps 746 mmHg 86%
    21:00 +2°C° 0.1 mm 5 mps 746 mmHg 86%
    22:00 +1°C° 0.1 mm 5 mps 746 mmHg 87%
    23:00 +1°C° 0 mm 4 mps 746 mmHg 88%

    30 November, Thursday

    Time Temperature Precipitation Wind Pressure Humidity
    00:00 +1°C° 0 mm 4 mps 746 mmHg 89%
    01:00 +1°C° 0 mm 4 mps 747 mmHg 90%
    02:00 +1°C° 0 mm 4 mps 747 mmHg 91%
    03:00 +2°C° 0 mm 3 mps 747 mmHg 91%
    04:00 +1°C° 0 mm 3 mps 747 mmHg 92%
    05:00 +1°C° 0 mm 3 mps 747 mmHg 92%
    06:00 +1°C° 0 mm 3 mps 747 mmHg 93%
    07:00 +2°C° 0 mm 2 mps 747 mmHg 93%
    08:00 +2°C° 0 mm 2 mps 747 mmHg 92%
    09:00 +2°C° 0 mm 2 mps 747 mmHg 91%
    10:00 +3°C° 0 mm 2 mps 747 mmHg 90%
    11:00 +3°C° 0 mm 2 mps 746 mmHg 88%
    12:00 +3°C° 0 mm 2 mps 746 mmHg 86%
    13:00 +3°C° 0 mm 2 mps 745 mmHg 84%
    14:00 +3°C° 0 mm 2 mps 745 mmHg 84%
    15:00 +3°C° 0 mm 2 mps 745 mmHg 84%
    16:00 +3°C° 0 mm 2 mps 745 mmHg 83%
    17:00 +2°C° 0 mm 2 mps 745 mmHg 83%
    18:00 +1°C° 0 mm 3 mps 745 mmHg 82%
    19:00 +1°C° 0 mm 3 mps 744 mmHg 82%
    20:00 0°C° 0 mm 3 mps 744 mmHg 84%
    21:00 0°C° 0 mm 3 mps 744 mmHg 87%
    22:00 -1°C° 0 mm 3 mps 744 mmHg 89%
    23:00 -1°C° 0 mm 3 mps 744 mmHg 90%
    Show more